Track COSMOS 2213 now! 10-day predictions COSMOS 2213 is classified as:
1 22184U 92068C 24325.88372784 .00000028 00000-0 94107-4 0 9990 2 22184 82.6010 351.9798 0002897 13.8910 102.2344 12.62591396478601